Location: Aytr�
(46.1357°N, 1.1145°W)
Time: 19:47:05
(UTC+00:00)

Meteor 2-12 Rocket - Pass Details

Date: 03 March 2021
Orbit: 936 x 957 km, 82.5° (Epoch: 21 April)

Event Time Altitude Azimuth Distance (km) Brightness Sun altitude
Rises 18:49:04 0° 178° (S) 3,584 7.4 -10.4°
Reaches altitude 10° 18:51:33 10° 175° (S) 2,646 6.7 -10.8°
Maximum altitude 18:57:32 66° 94° (E) 1,024 4.4 -11.8°
Drops below altitude 10° 19:03:35 10° 14° (NNE) 2,677 6.7 -12.9°
Sets 19:06:06 0° 12° (NNE) 3,629 7.4 -13.3°
